SCP
0 0 0 0 0 0 0 0 0 0 0 0 0 0 0 0 0 0 0 0 0 0 0 0 0 0 0 0 0 0 0 0 0 0 0 0 0 0
0 0 0 0 0 0 0 0 0 0 0 0 0 0 0 0 0 0 0 0 0 0 0 0 0 0 0 0 0 0 0 0 0 0 0 0 0 0
0 0 0 0 0 0 0 0 0 0 0 0 0 0 0 0 0 0 0 0 0 0 0 0 0 0 0 0 0 0 0 0 0 0 0 0 0 0
0 0 0 0 0 0 0 0 0 0 0 0 0 0 0 0 0 0 0 0 0 0 0 0 0 0 0 0 0 0 0 0 0 0 0 0 0 0
0 0 0 0 0 0 0 0 0 0 0 0 0 0 0 0 0 0 0 0 0 0 0 0 0 0 0 0 0 0 0 0 0 0 0 0 0 0
0 0 0 0 0 0 0 0 0 0 0 0 0 0 0 0 0 0 0 0 0 0 0 0 0 0 0 0 0 0 0 0 0 0 0 0 0 0
0 0 0 0 0 0 0 0 0 0 0 0 0 0 0 0 0 0 0 0 0 0 0 0 0 0 0 0 0 0 0 0 0 0 0 0 0 0
0 0 0 0 0 0 0 0 0 0 0 0 0 0 0 0 0 0 0 0 0 0 0 0 0 0 0 0 0 0 0 0 0 0 0 0 0 0
0 0 0 0 0 0 0 0 0 0 0 0 0 0 0 0 0 0 0 0 0 0 0 0 0 0 0 0 0 0 0 0 0 0 0 0 0 0
0 0 0 0 0 0 0 0 0 0 0 0 0 0 0 0 0 0 0 0 0 0 0 0 0 0 0 0 0 0 0 0 0 0 0 0 0 0
0 0 0 0 0 0 0 0 0 0 0 0 0 0 0 0 0 0 0 0 0 0 0 0 0 0 0 0 0 0 0 0 0 0 0 0 0 0
0 0 0 0 0 0 0 0 0 0 0 0 0 0 0 0 0 0 0 0 0 0 0 0 0 0 0 0 0 0 0 0 0 0 0 0 0 0
0 0 0 0 0 0 0 0 0 0 0 0 0 0 0 0 0 0 0 0 0 0 0 0 0 0 0 0 0 0 0 0 0 0 0 0 0 0
0 0 0 0 0 0 0 0 0 0 0 0 0 0 0 0 0 0 0 0 0 0 0 0 0 0 0 0 0 0 0 0 0 0 0 0 0 0
0 0 0 0 0 0 0 0 0 0 0 0 0 0 0 0 0 0 0 0 0 0 0 0 0 0 0 0 0 0 0 0 0 0 0 0 0 0
0 0 0 0 0 0 0 0 0 0 0 0 0 0 0 0 0 0 0 0 0 0 0 0 0 0 0 0 0 0 0 0 0 0 0 0 0 0
0 0 0 0 0 0 0 0 0 0 0 0 0 0 0 0 0 0 0 0 0 0 0 0 0 0 0 0 0 0 0 0 0 0 0 0 0 0
0 0 0 0 0 0 0 0 0 0 0 0 0 0 0 0 0 0 0 0 0 0 0 0 0 0 0 0 0 0 0 0 0 0 0 0 0 0
0 0 0 0 0 0 0 0 0 0 0 0 0 0 0 0 0 0 0 0 0 0 0 0 0 0 0 0 0 0 0 0 0 0 0 0 0 0
0 0 0 0 0 0 0 0 0 0 0 0 0 0 0 0 0 0 0 0 0 0 0 0 0 0 0 0 0 0 0 0 0 0 0 0 0 0
0 0 0 0 0 0 0 0 0 0 0 0 0 0 0 0 0 0 0 0 0 0 0 0 0 0 0 0 0 0 0 0 0 0 0 0 0 0
0 0 0 0 0 0 0 0 0 0 0 0 0 0 0 0 0 0 0 0 0 0 0 0 0 0 0 0 0 0 0 0 0 0 0 0 0 0
0 0 0 0 0 0 0 0 0 0 0 0 0 0 0 0 0 0 0 0 0 0 0 0 0 0 0 0 0 0 0 0 0 0 0 0 0 0
Wind_Speed
3 3 3 3 3 3 2 2 2 2 2 1 1 2 2 3 4 3 4 5 6 5 5 5 5 5 5 6 6 5 5 5 6 6 6 7 7 7
2 2 3 3 2 3 3 3 2 2 2 1 1 2 2 2 4 3 4 7 6 6 6 5 5 5 5 5 5 5 5 6 6 6 6 6 6 6
3 3 3 3 2 2 2 2 2 2 2 1 0 2 2 2 2 2 4 4 4 7 7 6 6 6 5 5 6 6 5 5 6 6 6 5 5 5
3 3 3 3 2 2 2 2 2 1 1 1 0 0 1 2 3 3 2 3 4 7 8 8 7 6 6 6 6 6 6 6 6 5 6 5 5 5
3 3 3 3 3 2 2 1 1 1 0 1 1 0 0 1 2 2 2 1 3 6 8 7 7 7 7 7 7 7 7 6 6 5 5 5 5 5
2 2 2 2 3 3 2 1 1 1 0 1 1 1 1 1 2 2 2 2 2 3 4 6 7 8 8 8 8 8 8 8 7 7 6 6 5 5
2 2 2 2 2 2 2 2 1 1 1 1 1 1 1 1 2 1 2 2 1 2 3 3 4 4 5 7 9 9 10 9 9 8 7 7 6 6
2 2 1 1 1 1 0 1 1 1 1 1 1 2 2 2 1 2 2 1 1 2 2 2 3 4 4 4 8 11 11 10 10 9 9 9 9 9
2 2 2 2 2 1 2 2 1 1 2 2 2 2 2 2 2 2 1 1 1 2 2 2 2 3 3 5 11 12 12 11 11 11 11 11 10 10
1 2 2 2 5 4 1 1 1 1 0 1 1 1 1 1 1 1 2 1 0 1 2 2 2 2 2 3 10 13 13 12 12 12 12 12 12 11
1 2 2 2 6 6 2 1 1 1 2 3 2 1 2 1 1 0 1 1 1 2 2 2 2 1 2 3 6 12 13 13 13 13 13 13 12 10
1 2 5 4 5 6 3 1 1 1 1 1 1 1 2 3 3 3 2 2 1 1 2 2 1 1 1 2 3 5 7 10 12 13 13 14 12 7
1 1 2 3 3 3 2 1 1 2 1 1 1 2 2 2 3 3 3 2 1 1 1 1 0 1 1 1 2 4 5 5 6 8 12 15 14 11
2 2 1 2 4 4 2 2 3 3 2 2 1 2 2 2 3 3 3 3 3 3 2 1 1 2 1 2 2 2 4 5 5 6 6 10 12 15
2 3 3 5 5 5 5 5 4 3 2 2 2 2 2 2 2 2 2 3 3 4 4 4 4 3 3 3 3 2 3 4 4 4 5 5 5 6
2 3 5 7 6 6 4 4 4 3 2 2 2 2 2 2 2 3 3 3 2 3 4 5 5 5 4 4 3 3 3 3 3 4 4 4 4 5
3 3 3 3 3 3 3 3 3 3 3 2 2 2 2 3 3 3 3 3 3 3 3 3 4 5 6 4 4 4 4 3 3 3 3 4 4 5
3 4 4 3 3 3 3 3 3 3 3 3 3 3 3 3 3 3 3 3 3 3 3 3 3 3 3 5 7 6 5 4 4 4 4 4 4 4
3 5 4 4 3 3 3 3 2 2 3 3 3 3 3 2 3 3 3 3 3 3 3 3 3 3 4 4 5 7 5 4 4 4 4 4 4 4
5 5 5 4 4 3 3 3 2 2 2 3 3 3 3 3 3 3 3 3 3 3 3 3 3 4 4 4 3 4 7 6 4 5 5 4 5 5
5 5 5 4 4 3 3 3 3 2 3 3 3 3 3 3 3 3 3 4 4 4 4 4 5 6 3 2 3 4 5 9 9 6 5 4 5 4
6 5 4 3 3 3 3 3 3 3 4 3 3 3 3 3 4 4 4 4 4 4 4 4 4 3 3 4 5 5 5 6 8 11 11 9 5 4
5 4 4 4 4 4 3 3 4 3 3 3 3 3 3 3 3 4 4 5 4 4 4 4 3 3 4 5 5 5 6 6 4 5 6 10 13 14
Wind_Direction
286 287 283 284 283 276 263 247 243 255 260 196 159 158 140 132 158 173 145 152 148 143 144 145 145 142 143 143 143 140 144 143 144 150 156 160 164 167
291 289 291 287 293 286 275 261 248 245 260 236 181 166 159 158 174 170 145 150 157 160 158 151 148 147 149 146 145 145 146 146 149 153 154 157 162 165
312 301 296 298 296 301 294 287 267 247 246 277 123 139 162 164 163 174 163 167 164 171 166 161 161 161 162 156 151 149 152 156 156 155 155 156 157 167
323 320 313 311 308 303 304 302 303 287 222 239 168 152 182 170 169 182 189 172 158 169 171 170 171 175 176 174 167 163 167 168 167 168 169 169 172 178
340 338 334 336 323 319 313 301 293 297 247 214 198 167 169 178 168 189 180 154 167 165 172 176 180 185 186 182 178 177 176 176 176 178 178 180 183 188
344 337 342 346 337 328 316 309 307 313 263 190 167 173 167 183 180 179 177 180 193 171 170 171 178 185 189 188 188 186 185 185 184 185 188 193 199 204
334 344 12 26 19 345 327 349 343 307 252 176 191 182 181 185 200 201 187 178 201 184 160 174 172 180 190 198 199 196 194 195 195 197 201 206 212 219
333 330 253 248 240 226 333 360 320 274 263 239 223 199 201 191 189 195 169 171 210 189 168 199 179 184 192 190 193 194 198 201 204 206 210 215 221 226
335 322 322 8 333 248 201 205 191 214 219 227 233 217 196 193 189 199 196 210 208 181 161 208 195 190 197 191 185 192 199 205 209 213 216 220 224 229
329 333 349 6 2 356 350 41 61 34 292 212 224 229 175 140 190 209 198 174 208 233 169 193 208 201 194 173 189 195 201 207 211 215 219 224 226 229
357 11 9 42 18 5 352 17 37 79 78 84 83 105 134 159 167 146 206 180 211 235 198 189 202 200 197 198 201 201 205 210 215 219 222 226 227 228
42 64 51 40 26 14 360 5 13 21 81 111 126 233 216 215 214 213 229 225 229 224 193 186 202 191 226 216 192 192 210 221 224 226 227 230 227 220
345 36 70 36 12 357 348 338 332 327 289 237 219 216 213 207 208 218 222 222 234 261 187 152 249 260 243 248 213 201 200 210 215 227 229 231 227 212
343 15 42 346 328 319 306 286 304 310 271 251 238 228 223 215 216 215 214 219 221 228 226 198 216 234 258 271 256 221 217 217 213 214 215 220 225 221
341 339 308 290 297 287 264 268 274 261 251 245 241 235 234 224 210 208 220 228 236 236 230 222 215 228 234 243 249 240 236 236 223 218 214 208 208 203
304 299 275 266 266 275 277 251 238 239 239 236 230 225 218 219 224 215 216 216 226 243 239 225 219 218 233 245 247 247 240 236 233 226 219 223 221 214
323 292 277 263 250 239 238 235 226 223 232 239 236 234 232 227 231 230 221 225 223 229 237 236 225 218 219 227 242 245 240 241 235 230 229 236 236 227
314 284 279 271 270 267 258 243 232 230 235 238 237 239 242 243 241 235 224 228 237 238 233 228 218 218 229 241 226 233 237 236 241 240 234 238 252 241
267 272 273 274 274 275 269 265 251 236 233 238 243 244 244 244 246 246 237 236 242 245 244 234 226 223 238 252 253 226 224 236 241 243 239 237 245 244
247 258 267 269 265 264 270 270 261 249 240 243 243 244 245 245 248 251 245 240 247 249 251 245 236 232 234 245 251 244 227 228 236 242 246 244 244 244
262 253 251 258 261 259 255 250 247 247 251 255 250 245 243 249 256 260 259 259 255 249 248 243 241 241 241 245 262 258 241 230 226 226 234 241 249 249
261 264 261 255 255 258 256 246 237 233 236 242 245 239 239 244 252 257 258 256 249 252 254 251 240 235 236 246 255 258 253 246 243 246 248 236 224 231
252 261 266 262 258 255 257 258 260 258 249 250 253 244 240 246 250 256 259 260 262 264 266 264 255 246 249 250 256 260 261 256 246 249 252 246 239 243